Location: San Pelegr�n
(42.1868°N, 0.0079°E)
Time: 02:38:20
(UTC+00:00)

USA 116 - Pass Details

Date: 24 January 2020
Orbit: 405 x 834 km, 97.9° (Epoch: 18 November)

Event Time Altitude Azimuth Distance (km) Brightness Sun altitude
Exits shadow 18:52:53 23° 351° (N) 936 4.9 -20.2°
Maximum altitude 18:54:33 48° 286° (WNW) 542 4.0 -20.5°
Drops below altitude 10° 18:57:32 10° 211° (SSW) 1,463 6.4 -21.0°
Sets 18:59:32 0° 205° (SSW) 2,332 7.4 -21.4°
